"Sample Date","Sample Time","Sensor Name","Sample Value","Units","Flow Rate","Sample Interval","Sample Volume","Laser Status","Number Channels","Micron Size 0","Counts/Channel 0","Micron Size 1","Counts/Channel 1","Micron Size 2","Counts/Channel 2","Micron Size 3","Counts/Channel 3","Micron Size 4","Counts/Channel 4","Micron Size 5","Counts/Channel 5","Micron Size 6","Counts/Channel 6","Micron Size 7","Counts/Channel 7","Micron Size 8","Counts/Channel 8","Micron Size 9","Counts/Channel 9","Micron Size 10","Counts/Channel 10","Micron Size 11","Counts/Channel 11","Micron Size 12","Counts/Channel 12","Micron Size 13","Counts/Channel 13","Micron Size 14","Counts/Channel 14","Micron Size 15","Counts/Channel 15","Micron Size 16","Counts/Channel 16","Micron Size 17","Counts/Channel 17","Micron Size 18","Counts/Channel 18","Micron Size 19","Counts/Channel 19","Micron Size 20","Counts/Channel 20","Micron Size 21","Counts/Channel 21","Micron Size 22","Counts/Channel 22","Micron Size 23","Counts/Channel 23","Micron Size 24","Counts/Channel 24","Micron Size 25","Counts/Channel 25","Micron Size 26","Counts/Channel 26","Micron Size 27","Counts/Channel 27","Micron Size 28","Counts/Channel 28","Micron Size 29","Counts/Channel 29","Micron Size 30","Counts/Channel 30","Micron Size 31","Counts/Channel 31"
"07/11/06","19:00:02","AMMA06",79094.000,"cc",28327.701,6.00,2832.770,1,6,0.100,39369.000,0.200,33873.000,0.300,5360.000,0.500,326.000,1.000,166.000,5.000,0
"07/11/06","19:00:08","AMMA06",78450.000,"cc",28335.428,6.00,2833.543,1,6,0.100,39366.000,0.200,33192.000,0.300,5451.000,0.500,282.000,1.000,159.000,5.000,0
"07/11/06","19:00:14","AMMA06",78494.000,"cc",28259.981,6.00,2825.998,1,6,0.100,39334.000,0.200,33326.000,0.300,5381.000,0.500,296.000,1.000,157.000,5.000,0
"07/11/06","19:00:20","AMMA06",79636.000,"cc",28286.256,6.00,2828.626,1,6,0.100,39429.000,0.200,33788.000,0.300,5660.000,0.500,495.000,1.000,264.000,5.000,0
"07/11/06","19:00:26","AMMA06",85083.000,"cc",28321.078,6.00,2832.108,1,6,0.100,41652.000,0.200,34601.000,0.300,6847.000,0.500,1306.000,1.000,677.000,5.000,0
"07/11/06","19:00:32","AMMA06",82683.000,"cc",28356.260,6.00,2835.626,1,6,0.100,40845.000,0.200,34381.000,0.300,6156.000,0.500,850.000,1.000,451.000,5.000,0
"07/11/06","19:00:38","AMMA06",81786.000,"cc",28324.717,6.00,2832.472,1,6,0.100,40893.000,0.200,33394.000,0.300,6165.000,0.500,891.000,1.000,443.000,5.000,0
"07/11/06","19:00:44","AMMA06",80217.000,"cc",28330.760,6.00,2833.076,1,6,0.100,39754.000,0.200,33748.000,0.300,5695.000,0.500,691.000,1.000,329.000,5.000,0
"07/11/06","19:00:50","AMMA06",79622.000,"cc",28307.299,6.00,2830.730,1,6,0.100,39280.000,0.200,34226.000,0.300,5443.000,0.500,472.000,1.000,201.000,5.000,0
"07/11/06","19:00:56","AMMA06",79791.000,"cc",28337.652,6.00,2833.765,1,6,0.100,39300.000,0.200,34195.000,0.300,5513.000,0.500,531.000,1.000,252.000,5.000,0
"07/11/06","19:01:02","AMMA06",79058.000,"cc",28316.938,6.00,2831.694,1,6,0.100,39054.000,0.200,34124.000,0.300,5339.000,0.500,350.000,1.000,191.000,5.000,0
"07/11/06","19:01:08","AMMA06",78504.000,"cc",28269.291,6.00,2826.929,1,6,0.100,38795.000,0.200,33852.000,0.300,5336.000,0.500,369.000,1.000,152.000,5.000,0
"07/11/06","19:01:14","AMMA06",78635.000,"cc",28348.768,6.00,2834.877,1,6,0.100,39401.000,0.200,33449.000,0.300,5222.000,0.500,376.000,1.000,187.000,5.000,0
"07/11/06","19:01:20","AMMA06",79781.000,"cc",28275.356,6.00,2827.536,1,6,0.100,39900.000,0.200,33701.000,0.300,5447.000,0.500,486.000,1.000,247.000,5.000,0
"07/11/06","19:01:26","AMMA06",80656.000,"cc",28286.549,6.00,2828.655,1,6,0.100,40560.000,0.200,33642.000,0.300,5516.000,0.500,622.000,1.000,316.000,5.000,0
"07/11/06","19:01:32","AMMA06",78876.000,"cc",28313.992,6.00,2831.399,1,6,0.100,40152.000,0.200,32945.000,0.300,5141.000,0.500,435.000,1.000,203.000,5.000,0
"07/11/06","19:01:38","AMMA06",81945.000,"cc",28298.688,6.00,2829.869,1,6,0.100,41814.000,0.200,33223.000,0.300,5747.000,0.500,799.000,1.000,362.000,5.000,0
"07/11/06","19:01:44","AMMA06",80580.000,"cc",28328.697,6.00,2832.870,1,6,0.100,41578.000,0.200,32460.000,0.300,5514.000,0.500,688.000,1.000,340.000,5.000,0
"07/11/06","19:01:50","AMMA06",81902.000,"cc",28310.850,6.00,2831.085,1,6,0.100,42439.000,0.200,32360.000,0.300,5761.000,0.500,929.000,1.000,413.000,5.000,0
"07/11/06","19:01:56","AMMA06",83362.000,"cc",28372.621,6.00,2837.262,1,6,0.100,42637.000,0.200,32625.000,0.300,6222.000,0.500,1292.000,1.000,586.000,5.000,0
"07/11/06","19:02:02","AMMA06",82601.000,"cc",28318.754,6.00,2831.876,1,6,0.100,42879.000,0.200,32217.000,0.300,5913.000,0.500,1081.000,1.000,511.000,5.000,0
"07/11/06","19:02:08","AMMA06",79682.000,"cc",28355.791,6.00,2835.579,1,6,0.100,41988.000,0.200,31725.000,0.300,5055.000,0.500,620.000,1.000,294.000,5.000,0
"07/11/06","19:02:14","AMMA06",78705.000,"cc",28247.051,6.00,2824.705,1,6,0.100,41684.000,0.200,31512.000,0.300,4895.000,0.500,417.000,1.000,197.000,5.000,0
"07/11/06","19:02:20","AMMA06",78975.000,"cc",28323.535,6.00,2832.354,1,6,0.100,42166.000,0.200,31114.000,0.300,4942.000,0.500,524.000,1.000,229.000,5.000,0
"07/11/06","19:02:26","AMMA06",78542.000,"cc",28285.440,6.00,2828.544,1,6,0.100,42111.000,0.200,30833.000,0.300,4907.000,0.500,484.000,1.000,207.000,5.000,0
"07/11/06","19:02:32","AMMA06",82569.000,"cc",28373.666,6.00,2837.367,1,6,0.100,43208.000,0.200,32274.000,0.300,5674.000,0.500,1007.000,1.000,406.000,5.000,0
"07/11/06","19:02:38","AMMA06",80752.000,"cc",28327.373,6.00,2832.738,1,6,0.100,42600.000,0.200,31801.000,0.300,5322.000,0.500,686.000,1.000,343.000,5.000,0
"07/11/06","19:02:44","AMMA06",79867.000,"cc",28356.928,6.00,2835.693,1,6,0.100,41889.000,0.200,31931.000,0.300,5052.000,0.500,673.000,1.000,322.000,5.000,0
"07/11/06","19:02:50","AMMA06",78944.000,"cc",28279.199,6.00,2827.920,1,6,0.100,41866.000,0.200,31416.000,0.300,4964.000,0.500,475.000,1.000,222.000,5.000,1.000
"07/11/06","19:02:56","AMMA06",79125.000,"cc",28285.123,6.00,2828.513,1,6,0.100,41883.000,0.200,31486.000,0.300,5032.000,0.500,497.000,1.000,226.000,5.000,1.000
"07/11/06","19:03:02","AMMA06",78867.000,"cc",28315.502,6.00,2831.550,1,6,0.100,41953.000,0.200,31333.000,0.300,4904.000,0.500,458.000,1.000,219.000,5.000,0
"07/11/06","19:03:08","AMMA06",78802.000,"cc",28359.863,6.00,2835.987,1,6,0.100,41608.000,0.200,31512.000,0.300,4951.000,0.500,476.000,1.000,255.000,5.000,0
"07/11/06","19:03:14","AMMA06",78584.000,"cc",28310.221,6.00,2831.022,1,6,0.100,41596.000,0.200,31296.000,0.300,5011.000,0.500,468.000,1.000,213.000,5.000,0
"07/11/06","19:03:20","AMMA06",78257.000,"cc",28262.938,6.00,2826.294,1,6,0.100,41637.000,0.200,31259.000,0.300,4937.000,0.500,284.000,1.000,140.000,5.000,0
"07/11/06","19:03:26","AMMA06",79555.000,"cc",28327.977,6.00,2832.798,1,6,0.100,41355.000,0.200,32344.000,0.300,5078.000,0.500,507.000,1.000,271.000,5.000,0
"07/11/06","19:03:32","AMMA06",79449.000,"cc",28320.768,6.00,2832.077,1,6,0.100,41310.000,0.200,32244.000,0.300,5117.000,0.500,529.000,1.000,249.000,5.000,0
"07/11/06","19:03:38","AMMA06",80060.000,"cc",28296.014,6.00,2829.602,1,6,0.100,41204.000,0.200,32566.000,0.300,5414.000,0.500,581.000,1.000,295.000,5.000,0
"07/11/06","19:03:44","AMMA06",79102.000,"cc",28324.727,6.00,2832.473,1,6,0.100,40626.000,0.200,32450.000,0.300,5239.000,0.500,529.000,1.000,258.000,5.000,0
"07/11/06","19:03:50","AMMA06",79326.000,"cc",28300.104,6.00,2830.011,1,6,0.100,40811.000,0.200,32531.000,0.300,5254.000,0.500,506.000,1.000,223.000,5.000,1.000
"07/11/06","19:03:56","AMMA06",78563.000,"cc",28294.639,6.00,2829.464,1,6,0.100,40332.000,0.200,32720.000,0.300,4939.000,0.500,385.000,1.000,187.000,5.000,0
"07/11/06","19:04:02","AMMA06",78472.000,"cc",28334.834,6.00,2833.484,1,6,0.100,39982.000,0.200,32974.000,0.300,4984.000,0.500,359.000,1.000,173.000,5.000,0
"07/11/06","19:04:08","AMMA06",79268.000,"cc",28325.049,6.00,2832.505,1,6,0.100,40160.000,0.200,33160.000,0.300,5238.000,0.500,466.000,1.000,244.000,5.000,0
"07/11/06","19:04:14","AMMA06",79429.000,"cc",28299.395,6.00,2829.940,1,6,0.100,39944.000,0.200,33242.000,0.300,5378.000,0.500,574.000,1.000,291.000,5.000,0
"07/11/06","19:04:20","AMMA06",82013.000,"cc",28339.744,6.00,2833.975,1,6,0.100,40772.000,0.200,33716.000,0.300,6117.000,0.500,941.000,1.000,467.000,5.000,0
"07/11/06","19:04:26","AMMA06",78686.000,"cc",28335.924,6.00,2833.593,1,6,0.100,39867.000,0.200,32925.000,0.300,5244.000,0.500,433.000,1.000,217.000,5.000,0
"07/11/06","19:04:32","AMMA06",79247.000,"cc",28275.961,6.00,2827.596,1,6,0.100,40151.000,0.200,33181.000,0.300,5252.000,0.500,450.000,1.000,213.000,5.000,0
"07/11/06","19:04:38","AMMA06",79833.000,"cc",28280.434,6.00,2828.044,1,6,0.100,40424.000,0.200,33225.000,0.300,5366.000,0.500,542.000,1.000,276.000,5.000,0
"07/11/06","19:04:44","AMMA06",79654.000,"cc",28353.805,6.00,2835.381,1,6,0.100,40298.000,0.200,32910.000,0.300,5630.000,0.500,549.000,1.000,267.000,5.000,0
"07/11/06","19:04:50","AMMA06",81532.000,"cc",28365.691,6.00,2836.569,1,6,0.100,40784.000,0.200,33904.000,0.300,5720.000,0.500,754.000,1.000,370.000,5.000,0
"07/11/06","19:04:56","AMMA06",80014.000,"cc",28355.014,6.00,2835.502,1,6,0.100,40565.000,0.200,33135.000,0.300,5460.000,0.500,583.000,1.000,271.000,5.000,0
"07/11/06","19:05:02","AMMA06",80531.000,"cc",28255.174,6.00,2825.518,1,6,0.100,40284.000,0.200,33600.000,0.300,5669.000,0.500,634.000,1.000,344.000,5.000,0
"07/11/06","19:05:08","AMMA06",81460.000,"cc",28313.217,6.00,2831.322,1,6,0.100,40612.000,0.200,33648.000,0.300,5901.000,0.500,854.000,1.000,445.000,5.000,0
"07/11/06","19:05:14","AMMA06",81127.000,"cc",28329.668,6.00,2832.967,1,6,0.100,40429.000,0.200,33572.000,0.300,5980.000,0.500,772.000,1.000,374.000,5.000,0
"07/11/06","19:05:20","AMMA06",80069.000,"cc",28324.482,6.00,2832.449,1,6,0.100,40479.000,0.200,33189.000,0.300,5499.000,0.500,602.000,1.000,300.000,5.000,0
"07/11/06","19:05:26","AMMA06",80223.000,"cc",28369.023,6.00,2836.903,1,6,0.100,40577.000,0.200,32709.000,0.300,5849.000,0.500,744.000,1.000,344.000,5.000,0
"07/11/06","19:05:32","AMMA06",80978.000,"cc",28302.186,6.00,2830.219,1,6,0.100,41225.000,0.200,33077.000,0.300,5625.000,0.500,672.000,1.000,379.000,5.000,0
"07/11/06","19:05:38","AMMA06",81492.000,"cc",28261.303,6.00,2826.130,1,6,0.100,41196.000,0.200,33273.000,0.300,5876.000,0.500,757.000,1.000,390.000,5.000,0
"07/11/06","19:05:44","AMMA06",79533.000,"cc",28300.342,6.00,2830.034,1,6,0.100,40758.000,0.200,32637.000,0.300,5348.000,0.500,531.000,1.000,259.000,5.000,0
"07/11/06","19:05:50","AMMA06",79632.000,"cc",28302.367,6.00,2830.237,1,6,0.100,41127.000,0.200,32542.000,0.300,5251.000,0.500,468.000,1.000,244.000,5.000,0
"07/11/06","19:05:56","AMMA06",79706.000,"cc",28310.975,6.00,2831.098,1,6,0.100,41277.000,0.200,32483.000,0.300,5255.000,0.500,424.000,1.000,267.000,5.000,0
"07/11/06","19:06:02","AMMA06",80559.000,"cc",28351.010,6.00,2835.101,1,6,0.100,41275.000,0.200,32567.000,0.300,5669.000,0.500,698.000,1.000,350.000,5.000,0
"07/11/06","19:06:08","AMMA06",81320.000,"cc",28360.068,6.00,2836.007,1,6,0.100,41834.000,0.200,32566.000,0.300,5697.000,0.500,824.000,1.000,399.000,5.000,0
"07/11/06","19:06:14","AMMA06",84496.000,"cc",28317.133,6.00,2831.713,1,6,0.100,42129.000,0.200,33901.000,0.300,6540.000,0.500,1303.000,1.000,623.000,5.000,0
"07/11/06","19:06:20","AMMA06",79710.000,"cc",28320.082,6.00,2832.008,1,6,0.100,41132.000,0.200,32466.000,0.300,5295.000,0.500,547.000,1.000,270.000,5.000,0
"07/11/06","19:06:26","AMMA06",79652.000,"cc",28302.494,6.00,2830.250,1,6,0.100,41100.000,0.200,32485.000,0.300,5198.000,0.500,571.000,1.000,298.000,5.000,0
"07/11/06","19:06:32","AMMA06",79712.000,"cc",28287.643,6.00,2828.764,1,6,0.100,41041.000,0.200,32564.000,0.300,5282.000,0.500,564.000,1.000,261.000,5.000,0
"07/11/06","19:06:38","AMMA06",79396.000,"cc",28324.088,6.00,2832.409,1,6,0.100,41310.000,0.200,32029.000,0.300,5248.000,0.500,569.000,1.000,240.000,5.000,0
"07/11/06","19:06:44","AMMA06",78375.000,"cc",28302.940,6.00,2830.294,1,6,0.100,40662.000,0.200,31957.000,0.300,5087.000,0.500,467.000,1.000,202.000,5.000,0
"07/11/06","19:06:50","AMMA06",79398.000,"cc",28329.063,6.00,2832.907,1,6,0.100,41585.000,0.200,31940.000,0.300,5130.000,0.500,499.000,1.000,244.000,5.000,0
"07/11/06","19:06:56","AMMA06",78923.000,"cc",28321.576,6.00,2832.158,1,6,0.100,41296.000,0.200,31722.000,0.300,5122.000,0.500,515.000,1.000,268.000,5.000,0
"07/11/06","19:07:02","AMMA06",82042.000,"cc",28301.354,6.00,2830.136,1,6,0.100,42653.000,0.200,32192.000,0.300,5818.000,0.500,907.000,1.000,472.000,5.000,0
"07/11/06","19:07:08","AMMA06",80907.000,"cc",28338.014,6.00,2833.802,1,6,0.100,42783.000,0.200,31908.000,0.300,5361.000,0.500,574.000,1.000,281.000,5.000,0
"07/11/06","19:07:14","AMMA06",80310.000,"cc",28256.891,6.00,2825.689,1,6,0.100,42930.000,0.200,31666.000,0.300,4998.000,0.500,488.000,1.000,228.000,5.000,0
"07/11/06","19:07:20","AMMA06",81301.000,"cc",28359.482,6.00,2835.949,1,6,0.100,43676.000,0.200,31438.000,0.300,5232.000,0.500,640.000,1.000,315.000,5.000,0
"07/11/06","19:07:26","AMMA06",81138.000,"cc",28280.775,6.00,2828.078,1,6,0.100,42821.000,0.200,31826.000,0.300,5434.000,0.500,704.000,1.000,353.000,5.000,0
"07/11/06","19:07:32","AMMA06",80002.000,"cc",28354.420,6.00,2835.442,1,6,0.100,42482.000,0.200,31503.000,0.300,5155.000,0.500,597.000,1.000,265.000,5.000,0
"07/11/06","19:07:38","AMMA06",81201.000,"cc",28311.703,6.00,2831.170,1,6,0.100,42978.000,0.200,31647.000,0.300,5466.000,0.500,774.000,1.000,336.000,5.000,0
"07/11/06","19:07:44","AMMA06",82605.000,"cc",28323.053,6.00,2832.305,1,6,0.100,43515.000,0.200,31997.000,0.300,5629.000,0.500,1009.000,1.000,455.000,5.000,0
"07/11/06","19:07:50","AMMA06",79409.000,"cc",28363.027,6.00,2836.303,1,6,0.100,42104.000,0.200,31394.000,0.300,5109.000,0.500,537.000,1.000,265.000,5.000,0
"07/11/06","19:07:56","AMMA06",82540.000,"cc",28286.484,6.00,2828.649,1,6,0.100,43304.000,0.200,32066.000,0.300,5776.000,0.500,954.000,1.000,440.000,5.000,0
"07/11/06","19:08:02","AMMA06",81290.000,"cc",28282.094,6.00,2828.210,1,6,0.100,42455.000,0.200,31696.000,0.300,5674.000,0.500,982.000,1.000,483.000,5.000,0
"07/11/06","19:08:08","AMMA06",81996.000,"cc",28340.760,6.00,2834.076,1,6,0.100,43141.000,0.200,31708.000,0.300,5709.000,0.500,967.000,1.000,471.000,5.000,0
"07/11/06","19:08:14","AMMA06",81329.000,"cc",28337.006,6.00,2833.701,1,6,0.100,42749.000,0.200,32053.000,0.300,5461.000,0.500,709.000,1.000,357.000,5.000,0
"07/11/06","19:08:20","AMMA06",79867.000,"cc",28339.873,6.00,2833.988,1,6,0.100,42111.000,0.200,31418.000,0.300,5302.000,0.500,723.000,1.000,313.000,5.000,0
"07/11/06","19:08:26","AMMA06",78903.000,"cc",28306.129,6.00,2830.613,1,6,0.100,41223.000,0.200,32098.000,0.300,4981.000,0.500,386.000,1.000,215.000,5.000,0
"07/11/06","19:08:32","AMMA06",78663.000,"cc",28331.914,6.00,2833.192,1,6,0.100,41244.000,0.200,31758.000,0.300,4979.000,0.500,466.000,1.000,216.000,5.000,0
"07/11/06","19:08:38","AMMA06",81136.000,"cc",28324.637,6.00,2832.464,1,6,0.100,41586.000,0.200,32719.000,0.300,5649.000,0.500,801.000,1.000,381.000,5.000,0
"07/11/06","19:08:44","AMMA06",81985.000,"cc",28282.969,6.00,2828.297,1,6,0.100,42230.000,0.200,32664.000,0.300,5819.000,0.500,880.000,1.000,392.000,5.000,0
"07/11/06","19:08:50","AMMA06",81230.000,"cc",28350.018,6.00,2835.002,1,6,0.100,41838.000,0.200,32773.000,0.300,5548.000,0.500,723.000,1.000,348.000,5.000,0
"07/11/06","19:08:56","AMMA06",80246.000,"cc",28310.570,6.00,2831.057,1,6,0.100,41278.000,0.200,32299.000,0.300,5633.000,0.500,709.000,1.000,327.000,5.000,0
"07/11/06","19:09:02","AMMA06",79236.000,"cc",28306.844,6.00,2830.685,1,6,0.100,40332.000,0.200,32818.000,0.300,5363.000,0.500,481.000,1.000,242.000,5.000,0
"07/11/06","19:09:08","AMMA06",78634.000,"cc",28306.356,6.00,2830.636,1,6,0.100,39642.000,0.200,33245.000,0.300,5153.000,0.500,408.000,1.000,186.000,5.000,0
"07/11/06","19:09:14","AMMA06",78132.000,"cc",28294.275,6.00,2829.428,1,6,0.100,39571.000,0.200,32918.000,0.300,5154.000,0.500,310.000,1.000,179.000,5.000,0
"07/11/06","19:09:20","AMMA06",78975.000,"cc",28356.791,6.00,2835.679,1,6,0.100,39782.000,0.200,33168.000,0.300,5354.000,0.500,475.000,1.000,196.000,5.000,0
"07/11/06","19:09:26","AMMA06",84761.000,"cc",28312.301,6.00,2831.230,1,6,0.100,42714.000,0.200,34101.000,0.300,6438.000,0.500,1010.000,1.000,498.000,5.000,0
"07/11/06","19:09:32","AMMA06",78740.000,"cc",28345.127,6.00,2834.513,1,6,0.100,39565.000,0.200,33536.000,0.300,5124.000,0.500,356.000,1.000,159.000,5.000,0
"07/11/06","19:09:38","AMMA06",79462.000,"cc",28307.543,6.00,2830.754,1,6,0.100,40438.000,0.200,33044.000,0.300,5419.000,0.500,380.000,1.000,181.000,5.000,0
"07/11/06","19:09:44","AMMA06",78146.000,"cc",28305.857,6.00,2830.586,1,6,0.100,39314.000,0.200,33205.000,0.300,5154.000,0.500,334.000,1.000,139.000,5.000,0
"07/11/06","19:09:50","AMMA06",81549.000,"cc",28307.156,6.00,2830.716,1,6,0.100,40665.000,0.200,33526.000,0.300,5989.000,0.500,837.000,1.000,532.000,5.000,0
"07/11/06","19:09:56","AMMA06",80353.000,"cc",28316.953,6.00,2831.696,1,6,0.100,40186.000,0.200,33457.000,0.300,5721.000,0.500,664.000,1.000,325.000,5.000,0
"07/11/06","19:10:02","AMMA06",79685.000,"cc",28279.447,6.00,2827.945,1,6,0.100,40208.000,0.200,33203.000,0.300,5396.000,0.500,603.000,1.000,275.000,5.000,0
"07/11/06","19:10:08","AMMA06",78984.000,"cc",28344.916,6.00,2834.492,1,6,0.100,40099.000,0.200,32921.000,0.300,5319.000,0.500,443.000,1.000,202.000,5.000,0
"07/11/06","19:10:14","AMMA06",79722.000,"cc",28311.453,6.00,2831.146,1,6,0.100,40210.000,0.200,33078.000,0.300,5577.000,0.500,565.000,1.000,291.000,5.000,1.000
"07/11/06","19:10:20","AMMA06",80998.000,"cc",28353.336,6.00,2835.334,1,6,0.100,41234.000,0.200,32801.000,0.300,5785.000,0.500,779.000,1.000,399.000,5.000,0
"07/11/06","19:10:26","AMMA06",78721.000,"cc",28255.367,6.00,2825.537,1,6,0.100,39839.000,0.200,33007.000,0.300,5247.000,0.500,407.000,1.000,221.000,5.000,0
"07/11/06","19:10:32","AMMA06",78811.000,"cc",28373.910,6.00,2837.391,1,6,0.100,40193.000,0.200,32840.000,0.300,5154.000,0.500,410.000,1.000,214.000,5.000,0
"07/11/06","19:10:38","AMMA06",78948.000,"cc",28306.893,6.00,2830.690,1,6,0.100,40449.000,0.200,32840.000,0.300,5061.000,0.500,395.000,1.000,203.000,5.000,0
"07/11/06","19:10:44","AMMA06",78244.000,"cc",28278.178,6.00,2827.818,1,6,0.100,39898.000,0.200,32569.000,0.300,5260.000,0.500,349.000,1.000,168.000,5.000,0
"07/11/06","19:10:50","AMMA06",77994.000,"cc",28293.731,6.00,2829.373,1,6,0.100,39692.000,0.200,32726.000,0.300,5152.000,0.500,272.000,1.000,152.000,5.000,0
"07/11/06","19:10:56","AMMA06",78679.000,"cc",28349.363,6.00,2834.937,1,6,0.100,40200.000,0.200,32701.000,0.300,5232.000,0.500,356.000,1.000,190.000,5.000,0
"07/11/06","19:11:02","AMMA06",79724.000,"cc",28350.420,6.00,2835.042,1,6,0.100,40625.000,0.200,32950.000,0.300,5431.000,0.500,460.000,1.000,258.000,5.000,0
"07/11/06","19:11:08","AMMA06",78917.000,"cc",28321.279,6.00,2832.128,1,6,0.100,40316.000,0.200,32860.000,0.300,5169.000,0.500,390.000,1.000,182.000,5.000,0
"07/11/06","19:11:14","AMMA06",79432.000,"cc",28232.129,6.00,2823.213,1,6,0.100,40572.000,0.200,32912.000,0.300,5276.000,0.500,455.000,1.000,217.000,5.000,0
"07/11/06","19:11:20","AMMA06",80509.000,"cc",28291.475,6.00,2829.148,1,6,0.100,41112.000,0.200,32852.000,0.300,5530.000,0.500,673.000,1.000,342.000,5.000,0
"07/11/06","19:11:26","AMMA06",83037.000,"cc",28412.871,6.00,2841.287,1,6,0.100,42607.000,0.200,33179.000,0.300,5904.000,0.500,863.000,1.000,483.000,5.000,1.000
"07/11/06","19:11:32","AMMA06",80861.000,"cc",28366.186,6.00,2836.619,1,6,0.100,41552.000,0.200,32990.000,0.300,5490.000,0.500,554.000,1.000,275.000,5.000,0
"07/11/06","19:11:38","AMMA06",84797.000,"cc",28266.822,6.00,2826.682,1,6,0.100,42799.000,0.200,33658.000,0.300,6488.000,0.500,1239.000,1.000,613.000,5.000,0
"07/11/06","19:11:44","AMMA06",81961.000,"cc",28279.000,6.00,2827.900,1,6,0.100,41880.000,0.200,33032.000,0.300,5830.000,0.500,785.000,1.000,434.000,5.000,0
"07/11/06","19:11:50","AMMA06",83637.000,"cc",28347.289,6.00,2834.729,1,6,0.100,42400.000,0.200,33200.000,0.300,6323.000,0.500,1162.000,1.000,552.000,5.000,0
"07/11/06","19:11:56","AMMA06",85189.000,"cc",28344.522,6.00,2834.452,1,6,0.100,42549.000,0.200,33525.000,0.300,6965.000,0.500,1465.000,1.000,685.000,5.000,0
"07/11/06","19:12:02","AMMA06",82324.000,"cc",28270.268,6.00,2827.027,1,6,0.100,42107.000,0.200,32865.000,0.300,5868.000,0.500,982.000,1.000,502.000,5.000,0
"07/11/06","19:12:08","AMMA06",80512.000,"cc",28353.354,6.00,2835.335,1,6,0.100,41518.000,0.200,32464.000,0.300,5486.000,0.500,733.000,1.000,311.000,5.000,0
"07/11/06","19:12:14","AMMA06",80680.000,"cc",28311.420,6.00,2831.142,1,6,0.100,41706.000,0.200,32461.000,0.300,5480.000,0.500,683.000,1.000,350.000,5.000,0
"07/11/06","19:12:20","AMMA06",79882.000,"cc",28327.164,6.00,2832.717,1,6,0.100,41869.000,0.200,32050.000,0.300,5134.000,0.500,551.000,1.000,278.000,5.000,0
"07/11/06","19:12:26","AMMA06",78420.000,"cc",28290.055,6.00,2829.006,1,6,0.100,40879.000,0.200,32021.000,0.300,4967.000,0.500,381.000,1.000,172.000,5.000,0
"07/11/06","19:12:32","AMMA06",79546.000,"cc",28284.541,6.00,2828.454,1,6,0.100,41798.000,0.200,31980.000,0.300,5080.000,0.500,459.000,1.000,229.000,5.000,0
"07/11/06","19:12:38","AMMA06",79263.000,"cc",28316.758,6.00,2831.676,1,6,0.100,41217.000,0.200,32045.000,0.300,5249.000,0.500,508.000,1.000,244.000,5.000,0
"07/11/06","19:12:44","AMMA06",82844.000,"cc",28349.717,6.00,2834.972,1,6,0.100,43084.000,0.200,32652.000,0.300,5875.000,0.500,832.000,1.000,401.000,5.000,0
"07/11/06","19:12:50","AMMA06",81895.000,"cc",28297.158,6.00,2829.716,1,6,0.100,42939.000,0.200,32354.000,0.300,5539.000,0.500,745.000,1.000,318.000,5.000,0
"07/11/06","19:12:56","AMMA06",83283.000,"cc",28288.594,6.00,2828.860,1,6,0.100,43493.000,0.200,32674.000,0.300,5744.000,0.500,921.000,1.000,451.000,5.000,0
"07/11/06","19:13:02","AMMA06",80809.000,"cc",28363.779,6.00,2836.378,1,6,0.100,42302.000,0.200,32151.000,0.300,5408.000,0.500,666.000,1.000,282.000,5.000,0
"07/11/06","19:13:08","AMMA06",80220.000,"cc",28322.553,6.00,2832.255,1,6,0.100,42392.000,0.200,31803.000,0.300,5140.000,0.500,599.000,1.000,286.000,5.000,0
"07/11/06","19:13:14","AMMA06",81931.000,"cc",28306.893,6.00,2830.690,1,6,0.100,43106.000,0.200,32282.000,0.300,5445.000,0.500,768.000,1.000,330.000,5.000,0
"07/11/06","19:13:20","AMMA06",81709.000,"cc",28341.406,6.00,2834.141,1,6,0.100,42765.000,0.200,32563.000,0.300,5389.000,0.500,672.000,1.000,320.000,5.000,0
"07/11/06","19:13:26","AMMA06",82463.000,"cc",28280.240,6.00,2828.024,1,6,0.100,43538.000,0.200,32089.000,0.300,5581.000,0.500,831.000,1.000,424.000,5.000,0
"07/11/06","19:13:32","AMMA06",83297.000,"cc",28330.063,6.00,2833.006,1,6,0.100,43719.000,0.200,32472.000,0.300,5811.000,0.500,832.000,1.000,463.000,5.000,0
"07/11/06","19:13:38","AMMA06",80729.000,"cc",28343.895,6.00,2834.390,1,6,0.100,42400.000,0.200,32412.000,0.300,5172.000,0.500,508.000,1.000,237.000,5.000,0
"07/11/06","19:13:44","AMMA06",80108.000,"cc",28318.510,6.00,2831.851,1,6,0.100,41849.000,0.200,32439.000,0.300,5187.000,0.500,429.000,1.000,204.000,5.000,0
"07/11/06","19:13:50","AMMA06",81267.000,"cc",28320.527,6.00,2832.053,1,6,0.100,42469.000,0.200,32849.000,0.300,5216.000,0.500,506.000,1.000,227.000,5.000,0
"07/11/06","19:13:56","AMMA06",82654.000,"cc",28362.604,6.00,2836.261,1,6,0.100,43362.000,0.200,32799.000,0.300,5518.000,0.500,664.000,1.000,311.000,5.000,0
"07/11/06","19:14:02","AMMA06",83854.000,"cc",28303.199,6.00,2830.320,1,6,0.100,43416.000,0.200,33223.000,0.300,5936.000,0.500,871.000,1.000,408.000,5.000,0
"07/11/06","19:14:08","AMMA06",80627.000,"cc",28326.307,6.00,2832.631,1,6,0.100,41312.000,0.200,32969.000,0.300,5441.000,0.500,627.000,1.000,278.000,5.000,0
"07/11/06","19:14:14","AMMA06",80722.000,"cc",28316.482,6.00,2831.648,1,6,0.100,41359.000,0.200,33213.000,0.300,5326.000,0.500,558.000,1.000,266.000,5.000,0